Flag for Germany Weather past 2 weeks in Bocholt, North Rhine-Westphalia, Germany

Now
37 °F

Fog.


Feels Like: 31 °F
Forecast: 35 / 41 °F
Wind: 8 mph from Southwest

Location: Niederrhein

Current Time: Jan 25, 2015 at 3:37:39 PM

Latest Report: Jan 25, 2015 at 2:50 PM


Visibility: 2 mi

Pressure: 30.36 "Hg

Humidity: 100%

Dew point: 37 °F

Location of BocholtLocation

Historic Weather in Bocholt — Graph

°F

Bocholt temperature yesterday

Maximum temperature yesterday: 39 °F (at 2:20 PM)
Minimum temperature yesterday: 32 °F (at 4:50 AM)
Average temperature yesterday: 35 °F

Past Weeks' High & Low Weather Summary

 TemperatureHumidityPressure
High54 °F (Jan 10, 2:20 PM)100% (Jan 10, 2:20 PM)30.42 "Hg (Jan 10, 2:20 PM)
Low27 °F (Jan 21, 5:20 AM)57% (Jan 10, 7:50 PM)29.36 "Hg (Jan 15, 2:50 PM)
Average39 °F90%29.92 "Hg
* Reported Jan 10 2:20 PM — Jan 25 2:20 PM, Bocholt, Weather by CustomWeather, © 2014

Note: Actual official high and low records may vary slightly from our data, if they occured in-between our weather recording intervals... More about our weather records

Advertising

Bocholt weather history for previous 24 hours

 ConditionsComfort  
Time TempWeatherWind HumidityBarometerVisibility
2:20 PM
Jan 25
37 °FFog.8 mph100%30.36 "Hg3 mi
1:50 PM37 °FPartly sunny.7 mph100%30.36 "Hg4 mi
1:20 PM37 °FClear.6 mph100%30.39 "Hg6 mi
12:50 PM37 °FClear.6 mph100%30.39 "Hg4 mi
12:20 PM37 °FScattered clouds.6 mph100%30.39 "Hg5 mi
11:50 AM37 °FScattered clouds.6 mph100%30.39 "Hg4 mi
11:20 AM37 °FScattered clouds.6 mph100%30.42 "Hg4 mi
10:50 AM37 °FFog.6 mph100%30.42 "Hg3 mi
10:20 AM36 °FFog.3 mph100%30.42 "Hg3 mi
9:50 AM36 °FFog.5 mph100%30.42 "Hg3 mi
9:20 AM34 °FFog.6 mph100%30.39 "Hg3 mi
8:50 AM34 °FFog.6 mph100%30.39 "Hg3 mi
8:20 AM34 °FFog.5 mph100%30.39 "Hg3 mi
7:50 AM34 °FClear.5 mph100%30.39 "Hg4 mi
7:20 AM34 °FClear.6 mph100%30.39 "Hg10 mi
6:50 AM34 °FClear.6 mph100%30.36 "Hg10 mi
6:20 AM34 °FClear.6 mph100%30.39 "Hg10 mi
5:50 AM34 °FClear.5 mph100%30.36 "Hg6 mi
5:20 AM32 °FClear.6 mph100%30.36 "Hg4 mi
4:50 AM32 °FClear.5 mph100%30.36 "Hg4 mi
11:50 PM
Jan 24
32 °FClear.6 mph100%30.33 "Hg10 mi
11:20 PM32 °FClear.7 mph100%30.33 "Hg10 mi
10:50 PM32 °FClear.6 mph100%30.33 "Hg10 mi
10:20 PM34 °FClear.6 mph100%30.30 "Hg10 mi
9:50 PM34 °FClear.5 mph100%30.30 "Hg10 mi
9:20 PM34 °FClear.7 mph100%30.30 "Hg10 mi
8:50 PM34 °FClear.6 mph100%30.30 "Hg10 mi
8:20 PM34 °FPassing clouds.5 mph100%30.27 "HgN/A
7:50 PM36 °FClear.6 mph100%30.27 "Hg10 mi
7:20 PM36 °FClear.6 mph100%30.27 "Hg10 mi
6:50 PM36 °FClear.5 mph100%30.24 "Hg10 mi
6:20 PM37 °FClear.5 mph100%30.24 "Hg10 mi
5:50 PM37 °FPassing clouds.5 mph100%30.21 "HgN/A
5:20 PM39 °FSunny.3 mph93%30.18 "Hg10 mi
4:50 PM39 °FSunny.5 mph100%30.18 "Hg10 mi
4:20 PM39 °FSunny.5 mph100%30.15 "Hg10 mi
3:50 PM39 °FSunny.6 mph100%30.15 "Hg10 mi
3:20 PM39 °FSunny.7 mph100%30.15 "Hg10 mi
Weather by CustomWeather, © 2014

See weather overviewHow to use our weather pages